Time,TemperatureF,DewpointF,PressureIn,WindDirection,WindDirectionDegrees,WindSpeedMPH,WindSpeedGustMPH,Humidity,HourlyPrecipIn,Conditions,Clouds,dailyrainin,SolarRadiationWatts/m^2,SoftwareType,DateUTC
2013-03-21 00:00:00,9.7,1.0,30.17,West,269,0.0,2.0,67,0.00,,---,0.00,0.00,VWS V14.01,2013-03-21 05:00:00,
2013-03-21 00:05:00,9.6,0.9,30.16,West,269,0.0,3.0,67,0.00,,---,0.00,0.00,VWS V14.01,2013-03-21 05:05:00,
2013-03-21 00:10:00,9.5,0.8,30.16,West,275,2.0,3.0,67,0.00,,---,0.00,0.00,VWS V14.01,2013-03-21 05:10:00,
2013-03-21 00:15:00,9.4,0.7,30.16,West,275,1.0,2.0,67,0.00,,---,0.00,0.00,VWS V14.01,2013-03-21 05:15:00,
2013-03-21 00:20:00,9.2,0.8,30.17,West,275,0.0,4.0,68,0.00,,---,0.00,0.00,VWS V14.01,2013-03-21 05:20:00,
2013-03-21 00:25:00,9.1,0.7,30.16,West,278,0.0,3.0,68,0.00,,---,0.00,0.00,VWS V14.01,2013-03-21 05:25:00,
2013-03-21 00:30:00,8.9,0.5,30.17,West,278,0.0,2.0,68,0.00,,---,0.00,0.00,VWS V14.01,2013-03-21 05:30:00,
2013-03-21 00:35:00,8.7,0.3,30.17,West,279,0.0,1.0,68,0.00,,---,0.00,0.00,VWS V14.01,2013-03-21 05:35:00,
2013-03-21 00:40:00,8.7,0.3,30.16,West,279,0.0,3.0,68,0.00,,---,0.00,0.00,VWS V14.01,2013-03-21 05:40:00,
2013-03-21 00:45:00,8.6,2.6,30.16,West,279,0.0,3.0,76,0.00,,---,0.00,0.00,VWS V14.01,2013-03-21 05:45:00,
2013-03-21 00:50:00,8.5,0.4,30.16,West,279,0.0,2.0,69,0.00,,---,0.00,0.00,VWS V14.01,2013-03-21 05:50:00,
2013-03-21 00:55:00,8.4,0.3,30.17,West,279,2.0,3.0,69,0.00,,---,0.00,0.00,VWS V14.01,2013-03-21 05:55:00,
2013-03-21 01:00:00,8.3,0.2,30.17,West,279,0.0,2.0,69,0.00,,---,0.00,0.00,VWS V14.01,2013-03-21 06:00:00,
2013-03-21 01:05:00,8.2,0.2,30.17,West,279,0.0,2.0,69,0.00,,---,0.00,0.00,VWS V14.01,2013-03-21 06:05:00,
2013-03-21 01:10:00,8.1,0.1,30.17,West,279,0.0,1.0,69,0.00,,---,0.00,0.00,VWS V14.01,2013-03-21 06:10:00,
2013-03-21 01:15:00,7.9,-0.1,30.17,West,279,0.0,1.0,69,0.00,,---,0.00,0.00,VWS V14.01,2013-03-21 06:15:00,
2013-03-21 01:20:00,7.9,0.2,30.16,West,279,1.0,3.0,70,0.00,,---,0.00,0.00,VWS V14.01,2013-03-21 06:20:00,
2013-03-21 01:25:00,7.8,0.1,30.16,West,280,1.0,3.0,70,0.00,,---,0.00,0.00,VWS V14.01,2013-03-21 06:25:00,
2013-03-21 01:30:00,7.8,0.1,30.16,West,280,0.0,2.0,70,0.00,,---,0.00,0.00,VWS V14.01,2013-03-21 06:30:00,
2013-03-21 01:35:00,7.6,-0.1,30.16,West,280,1.0,1.0,70,0.00,,---,0.00,0.00,VWS V14.01,2013-03-21 06:35:00,
2013-03-21 01:40:00,7.4,-0.3,30.16,West,280,0.0,2.0,70,0.00,,---,0.00,0.00,VWS V14.01,2013-03-21 06:40:00,
2013-03-21 01:45:00,7.3,-0.1,30.16,West,280,0.0,2.0,71,0.00,,---,0.00,0.00,VWS V14.01,2013-03-21 06:45:00,
2013-03-21 01:50:00,7.2,-0.2,30.16,West,280,0.0,1.0,71,0.00,,---,0.00,0.00,VWS V14.01,2013-03-21 06:50:00,
2013-03-21 01:55:00,7.1,-0.3,30.16,West,280,1.0,2.0,71,0.00,,---,0.00,0.00,VWS V14.01,2013-03-21 06:55:00,
2013-03-21 02:00:00,7.1,-0.3,30.16,West,280,0.0,2.0,71,0.00,,---,0.00,0.00,VWS V14.01,2013-03-21 07:00:00,
2013-03-21 02:05:00,7.1,-0.3,30.16,West,279,0.0,2.0,71,0.00,,---,0.00,0.00,VWS V14.01,2013-03-21 07:05:00,
2013-03-21 02:10:00,7.1,-0.3,30.16,West,280,2.0,2.0,71,0.00,,---,0.00,0.00,VWS V14.01,2013-03-21 07:10:00,
2013-03-21 02:15:00,7.1,0.0,30.16,West,281,1.0,2.0,72,0.00,,---,0.00,0.00,VWS V14.01,2013-03-21 07:15:00,
2013-03-21 02:20:00,7.2,0.1,30.15,West,281,0.0,3.0,72,0.00,,---,0.00,0.00,VWS V14.01,2013-03-21 07:20:00,
2013-03-21 02:25:00,7.3,0.2,30.15,West,281,1.0,2.0,72,0.00,,---,0.00,0.00,VWS V14.01,2013-03-21 07:25:00,
2013-03-21 02:30:00,7.3,0.2,30.15,West,281,2.0,2.0,72,0.00,,---,0.00,0.00,VWS V14.01,2013-03-21 07:30:00,
2013-03-21 02:35:00,7.3,0.2,30.15,West,281,1.0,2.0,72,0.00,,---,0.00,0.00,VWS V14.01,2013-03-21 07:35:00,
2013-03-21 02:40:00,7.1,-0.3,30.15,West,281,1.0,2.0,71,0.00,,---,0.00,0.00,VWS V14.01,2013-03-21 07:40:00,
2013-03-21 02:45:00,7.1,0.0,30.15,West,281,3.0,3.0,72,0.00,,---,0.00,0.00,VWS V14.01,2013-03-21 07:45:00,
2013-03-21 02:50:00,7.1,0.0,30.15,West,281,1.0,3.0,72,0.00,,---,0.00,0.00,VWS V14.01,2013-03-21 07:50:00,
2013-03-21 02:55:00,7.0,-0.1,30.15,West,281,1.0,2.0,72,0.00,,---,0.00,0.00,VWS V14.01,2013-03-21 07:55:00,
2013-03-21 03:00:00,6.9,-0.2,30.15,West,281,0.0,2.0,72,0.00,,---,0.00,0.00,VWS V14.01,2013-03-21 08:00:00,
2013-03-21 03:05:00,6.8,-0.3,30.15,West,281,0.0,1.0,72,0.00,,---,0.00,0.00,VWS V14.01,2013-03-21 08:05:00,
2013-03-21 03:10:00,6.7,-0.4,30.15,West,281,0.0,1.0,72,0.00,,---,0.00,0.00,VWS V14.01,2013-03-21 08:10:00,
2013-03-21 03:15:00,6.6,-0.5,30.15,West,281,0.0,2.0,72,0.00,,---,0.00,0.00,VWS V14.01,2013-03-21 08:15:00,
2013-03-21 03:25:00,6.4,-0.7,30.15,WNW,287,0.0,4.0,72,0.00,,---,0.00,0.00,VWS V14.01,2013-03-21 08:25:00,
2013-03-21 03:30:00,6.4,-0.7,30.15,WNW,287,0.0,3.0,72,0.00,,---,0.00,0.00,VWS V14.01,2013-03-21 08:30:00,
2013-03-21 03:35:00,6.2,-0.9,30.15,WNW,287,0.0,0.0,72,0.00,,---,0.00,0.00,VWS V14.01,2013-03-21 08:35:00,
2013-03-21 03:40:00,6.0,-1.1,30.15,WNW,287,0.0,0.0,72,0.00,,---,0.00,0.00,VWS V14.01,2013-03-21 08:40:00,
2013-03-21 03:45:00,5.7,-1.4,30.15,WNW,287,0.0,0.0,72,0.00,,---,0.00,0.00,VWS V14.01,2013-03-21 08:45:00,
2013-03-21 03:55:00,5.4,-1.4,30.15,WNW,287,0.0,0.0,73,0.00,,---,0.00,0.00,VWS V14.01,2013-03-21 08:55:00,
2013-03-21 04:00:00,5.2,-1.5,30.15,WNW,287,0.0,0.0,73,0.00,,---,0.00,0.00,VWS V14.01,2013-03-21 09:00:00,
2013-03-21 04:05:00,5.1,-1.4,30.15,WNW,287,0.0,0.0,74,0.00,,---,0.00,0.00,VWS V14.01,2013-03-21 09:05:00,
2013-03-21 04:10:00,4.9,-1.6,30.15,WNW,287,0.0,0.0,74,0.00,,---,0.00,0.00,VWS V14.01,2013-03-21 09:10:00,
2013-03-21 04:15:00,4.7,-1.8,30.15,WNW,287,1.0,1.0,74,0.00,,---,0.00,0.00,VWS V14.01,2013-03-21 09:15:00,
2013-03-21 04:25:00,4.2,-2.2,30.15,WNW,287,0.0,0.0,74,0.00,,---,0.00,0.00,VWS V14.01,2013-03-21 09:25:00,
2013-03-21 04:30:00,4.1,-2.0,30.15,WNW,287,0.0,0.0,75,0.00,,---,0.00,0.00,VWS V14.01,2013-03-21 09:30:00,
2013-03-21 04:40:00,3.9,-2.2,30.15,WNW,287,0.0,0.0,75,0.00,,---,0.00,0.00,VWS V14.01,2013-03-21 09:40:00,
2013-03-21 04:50:00,3.7,-2.2,30.15,WNW,287,0.0,0.0,76,0.00,,---,0.00,0.00,VWS V14.01,2013-03-21 09:50:00,
2013-03-21 04:55:00,3.5,-2.3,30.15,WNW,287,0.0,0.0,76,0.00,,---,0.00,0.00,VWS V14.01,2013-03-21 09:55:00,
2013-03-21 05:00:00,3.3,-2.5,30.15,WNW,287,0.0,0.0,76,0.00,,---,0.00,0.00,VWS V14.01,2013-03-21 10:00:00,
2013-03-21 05:05:00,3.1,-2.7,30.15,WNW,287,0.0,0.0,76,0.00,,---,0.00,0.00,VWS V14.01,2013-03-21 10:05:00,
2013-03-21 05:10:00,3.1,-2.5,30.15,WNW,287,0.0,0.0,77,0.00,,---,0.00,0.00,VWS V14.01,2013-03-21 10:10:00,
2013-03-21 05:20:00,2.8,-2.8,30.15,WNW,287,0.0,0.0,77,0.00,,---,0.00,0.00,VWS V14.01,2013-03-21 10:20:00,
2013-03-21 05:25:00,2.7,-2.9,30.15,WNW,287,0.0,1.0,77,0.00,,---,0.00,0.00,VWS V14.01,2013-03-21 10:25:00,
2013-03-21 05:30:00,2.5,-3.0,30.15,WNW,287,0.0,0.0,77,0.00,,---,0.00,0.00,VWS V14.01,2013-03-21 10:30:00,
2013-03-21 05:35:00,2.4,-2.9,30.15,WNW,287,0.0,0.0,78,0.00,,---,0.00,0.00,VWS V14.01,2013-03-21 10:35:00,
2013-03-21 05:40:00,2.2,-3.1,30.15,WNW,287,0.0,0.0,78,0.00,,---,0.00,0.00,VWS V14.01,2013-03-21 10:40:00,
2013-03-21 05:45:00,2.0,-3.3,30.15,WNW,287,0.0,0.0,78,0.00,,---,0.00,0.00,VWS V14.01,2013-03-21 10:45:00,
2013-03-21 05:50:00,2.0,-3.3,30.15,WNW,287,0.0,0.0,78,0.00,,---,0.00,0.00,VWS V14.01,2013-03-21 10:50:00,
2013-03-21 05:55:00,1.9,-3.1,30.15,WNW,287,0.0,0.0,79,0.00,,---,0.00,0.00,VWS V14.01,2013-03-21 10:55:00,
2013-03-21 06:00:00,1.8,-3.2,30.15,WNW,287,0.0,0.0,79,0.00,,---,0.00,0.00,VWS V14.01,2013-03-21 11:00:00,
2013-03-21 06:05:00,1.8,-3.2,30.15,WNW,287,0.0,0.0,79,0.00,,---,0.00,0.00,VWS V14.01,2013-03-21 11:05:00,
2013-03-21 06:10:00,2.0,-3.0,30.15,WNW,287,0.0,0.0,79,0.00,,---,0.00,0.00,VWS V14.01,2013-03-21 11:10:00,
2013-03-21 06:15:00,2.0,-3.0,30.15,WNW,287,0.0,0.0,79,0.00,,---,0.00,0.00,VWS V14.01,2013-03-21 11:15:00,
2013-03-21 06:20:00,1.7,-3.3,30.15,WNW,287,0.0,0.0,79,0.00,,---,0.00,0.00,VWS V14.01,2013-03-21 11:20:00,
2013-03-21 06:30:00,1.5,-3.2,30.15,WNW,287,0.0,0.0,80,0.00,,---,0.00,0.00,VWS V14.01,2013-03-21 11:30:00,
2013-03-21 06:35:00,1.4,-3.3,30.15,WNW,287,0.0,0.0,80,0.00,,---,0.00,0.00,VWS V14.01,2013-03-21 11:35:00,
2013-03-21 06:40:00,1.3,-3.4,30.16,WNW,287,0.0,0.0,80,0.00,,---,0.00,0.00,VWS V14.01,2013-03-21 11:40:00,
2013-03-21 06:45:00,1.3,-3.4,30.16,WNW,287,0.0,0.0,80,0.00,,---,0.00,0.00,VWS V14.01,2013-03-21 11:45:00,
2013-03-21 06:55:00,1.3,-3.4,30.16,WNW,287,0.0,0.0,80,0.00,,---,0.00,0.00,VWS V14.01,2013-03-21 11:55:00,
2013-03-21 07:00:00,1.2,-3.5,30.16,WNW,287,0.0,0.0,80,0.00,,---,0.00,0.00,VWS V14.01,2013-03-21 12:00:00,
2013-03-21 07:05:00,1.1,-3.4,30.17,WNW,287,0.0,0.0,81,0.00,,---,0.00,0.00,VWS V14.01,2013-03-21 12:05:00,
2013-03-21 07:10:00,1.1,-3.4,30.17,WNW,287,0.0,0.0,81,0.00,,---,0.00,0.00,VWS V14.01,2013-03-21 12:10:00,
2013-03-21 07:15:00,1.1,-3.4,30.17,WNW,287,1.0,1.0,81,0.00,,---,0.00,7.00,VWS V14.01,2013-03-21 12:15:00,
2013-03-21 07:20:00,1.0,-3.5,30.17,WNW,287,0.0,1.0,81,0.00,,---,0.00,11.00,VWS V14.01,2013-03-21 12:20:00,
2013-03-21 07:25:00,1.1,-3.4,30.17,WNW,287,0.0,0.0,81,0.00,,---,0.00,14.00,VWS V14.01,2013-03-21 12:25:00,
2013-03-21 07:30:00,1.1,-3.4,30.18,WNW,287,0.0,0.0,81,0.00,,---,0.00,16.00,VWS V14.01,2013-03-21 12:30:00,
2013-03-21 07:35:00,1.2,-3.3,30.18,WNW,287,0.0,0.0,81,0.00,,---,0.00,21.00,VWS V14.01,2013-03-21 12:35:00,
2013-03-21 07:40:00,1.3,-2.9,30.18,WNW,287,0.0,0.0,82,0.00,,---,0.00,26.00,VWS V14.01,2013-03-21 12:40:00,
2013-03-21 07:45:00,1.5,-2.7,30.18,WNW,287,0.0,0.0,82,0.00,,---,0.00,40.00,VWS V14.01,2013-03-21 12:45:00,
2013-03-21 07:55:00,2.3,-1.7,30.18,WNW,287,0.0,0.0,83,0.00,,---,0.00,113.00,VWS V14.01,2013-03-21 12:55:00,
2013-03-21 08:00:00,3.3,-0.7,30.18,WNW,287,0.0,0.0,83,0.00,,---,0.00,132.00,VWS V14.01,2013-03-21 13:00:00,
2013-03-21 08:05:00,4.5,0.7,30.17,WNW,287,0.0,0.0,84,0.00,,---,0.00,146.00,VWS V14.01,2013-03-21 13:05:00,
2013-03-21 08:10:00,5.5,1.5,30.17,WNW,287,0.0,0.0,83,0.00,,---,0.00,162.00,VWS V14.01,2013-03-21 13:10:00,
2013-03-21 08:15:00,6.1,1.8,30.17,WNW,287,1.0,2.0,82,0.00,,---,0.00,178.00,VWS V14.01,2013-03-21 13:15:00,
2013-03-21 08:20:00,6.7,2.4,30.17,WNW,287,0.0,1.0,82,0.00,,---,0.00,193.00,VWS V14.01,2013-03-21 13:20:00,
2013-03-21 08:25:00,7.3,2.7,30.17,WNW,287,2.0,2.0,81,0.00,,---,0.00,209.00,VWS V14.01,2013-03-21 13:25:00,
2013-03-21 08:30:00,7.7,2.8,30.17,WNW,287,2.0,2.0,80,0.00,,---,0.00,225.00,VWS V14.01,2013-03-21 13:30:00,
2013-03-21 08:35:00,7.9,2.5,30.17,NNE,20,2.0,4.0,78,0.00,,---,0.00,241.00,VWS V14.01,2013-03-21 13:35:00,
2013-03-21 08:40:00,8.4,3.0,30.17,NNE,18,1.0,3.0,78,0.00,,---,0.00,253.00,VWS V14.01,2013-03-21 13:40:00,
2013-03-21 08:45:00,9.1,3.4,30.16,NNE,18,3.0,3.0,77,0.00,,---,0.00,269.00,VWS V14.01,2013-03-21 13:45:00,
2013-03-21 08:50:00,9.9,3.9,30.16,NNE,18,0.0,3.0,76,0.00,,---,0.00,287.00,VWS V14.01,2013-03-21 13:50:00,
2013-03-21 08:55:00,10.7,4.3,30.16,NNE,18,0.0,2.0,75,0.00,,---,0.00,302.00,VWS V14.01,2013-03-21 13:55:00,
2013-03-21 09:00:00,11.4,4.4,30.16,NNE,18,0.0,0.0,73,0.00,,---,0.00,315.00,VWS V14.01,2013-03-21 14:00:00,
2013-03-21 09:05:00,12.4,5.1,30.16,NNE,18,0.0,0.0,72,0.00,,---,0.00,325.00,VWS V14.01,2013-03-21 14:05:00,
2013-03-21 09:10:00,12.7,4.5,30.16,NNE,18,0.0,3.0,69,0.00,,---,0.00,339.00,VWS V14.01,2013-03-21 14:10:00,
2013-03-21 09:15:00,12.6,4.1,30.16,NNE,18,1.0,3.0,68,0.00,,---,0.00,353.00,VWS V14.01,2013-03-21 14:15:00,
2013-03-21 09:20:00,12.8,4.2,30.16,NNE,17,2.0,3.0,68,0.00,,---,0.00,371.00,VWS V14.01,2013-03-21 14:20:00,
2013-03-21 09:25:00,12.9,4.0,30.16,NNE,15,0.0,3.0,67,0.00,,---,0.00,385.00,VWS V14.01,2013-03-21 14:25:00,
2013-03-21 09:30:00,13.6,4.7,30.16,NNE,15,1.0,2.0,67,0.00,,---,0.00,401.00,VWS V14.01,2013-03-21 14:30:00,
2013-03-21 09:35:00,14.2,4.9,30.15,NNE,13,1.0,3.0,66,0.00,,---,0.00,418.00,VWS V14.01,2013-03-21 14:35:00,
2013-03-21 09:40:00,14.4,4.8,30.16,NNE,14,2.0,4.0,65,0.00,,---,0.00,434.00,VWS V14.01,2013-03-21 14:40:00,
2013-03-21 09:45:00,14.8,5.2,30.15,NNE,14,2.0,3.0,65,0.00,,---,0.00,446.00,VWS V14.01,2013-03-21 14:45:00,
2013-03-21 09:50:00,15.3,5.3,30.15,NNE,14,1.0,2.0,64,0.00,,---,0.00,462.00,VWS V14.01,2013-03-21 14:50:00,
2013-03-21 09:55:00,15.9,5.9,30.15,NNE,14,0.0,2.0,64,0.00,,---,0.00,476.00,VWS V14.01,2013-03-21 14:55:00,
2013-03-21 10:00:00,16.8,6.4,30.15,North,5,1.0,3.0,63,0.00,,---,0.00,492.00,VWS V14.01,2013-03-21 15:00:00,
2013-03-21 10:10:00,18.7,7.1,30.14,WNW,288,0.0,3.0,60,0.00,,---,0.00,520.00,VWS V14.01,2013-03-21 15:10:00,
2013-03-21 10:15:00,18.6,6.7,30.14,SW,230,4.0,4.0,59,0.00,,---,0.00,534.00,VWS V14.01,2013-03-21 15:15:00,
2013-03-21 10:20:00,17.3,5.1,30.14,SW,223,3.0,5.0,58,0.00,,---,0.00,548.00,VWS V14.01,2013-03-21 15:20:00,
2013-03-21 10:25:00,16.7,5.2,30.14,SW,222,1.0,5.0,60,0.00,,---,0.00,561.00,VWS V14.01,2013-03-21 15:25:00,
2013-03-21 10:30:00,16.6,5.2,30.14,SW,225,6.0,6.0,60,0.00,,---,0.00,571.00,VWS V14.01,2013-03-21 15:30:00,
2013-03-21 10:35:00,16.0,4.6,30.14,SW,224,2.0,6.0,60,0.00,,---,0.00,585.00,VWS V14.01,2013-03-21 15:35:00,
2013-03-21 10:40:00,17.0,6.6,30.14,SW,224,1.0,2.0,63,0.00,,---,0.00,598.00,VWS V14.01,2013-03-21 15:40:00,
2013-03-21 10:45:00,18.7,7.5,30.14,SW,218,5.0,5.0,61,0.00,,---,0.00,612.00,VWS V14.01,2013-03-21 15:45:00,
2013-03-21 10:50:00,18.8,6.9,30.14,SW,219,1.0,5.0,59,0.00,,---,0.00,622.00,VWS V14.01,2013-03-21 15:50:00,
2013-03-21 10:55:00,18.8,6.1,30.14,SW,217,0.0,5.0,57,0.00,,---,0.00,635.00,VWS V14.01,2013-03-21 15:55:00,
2013-03-21 11:00:00,18.0,5.7,30.14,SSW,209,5.0,6.0,58,0.00,,---,0.00,645.00,VWS V14.01,2013-03-21 16:00:00,
2013-03-21 11:10:00,17.5,5.6,30.14,SW,216,0.0,8.0,59,0.00,,---,0.00,663.00,VWS V14.01,2013-03-21 16:10:00,
2013-03-21 11:15:00,18.1,6.2,30.14,SW,220,5.0,7.0,59,0.00,,---,0.00,673.00,VWS V14.01,2013-03-21 16:15:00,
2013-03-21 11:20:00,18.4,6.8,30.14,WSW,240,0.0,5.0,60,0.00,,---,0.00,682.00,VWS V14.01,2013-03-21 16:20:00,
2013-03-21 11:25:00,19.7,7.7,30.13,WNW,287,3.0,6.0,59,0.00,,---,0.00,693.00,VWS V14.01,2013-03-21 16:25:00,
2013-03-21 11:30:00,20.9,7.7,30.13,NNW,341,1.0,4.0,56,0.00,,---,0.00,700.00,VWS V14.01,2013-03-21 16:30:00,
2013-03-21 11:35:00,21.7,10.3,30.13,WSW,254,0.0,6.0,61,0.00,,---,0.00,708.00,VWS V14.01,2013-03-21 16:35:00,
2013-03-21 11:40:00,22.9,9.2,30.13,SW,233,1.0,5.0,55,0.00,,---,0.00,719.00,VWS V14.01,2013-03-21 16:40:00,
2013-03-21 11:45:00,23.9,9.3,30.13,SW,227,2.0,3.0,53,0.00,,---,0.00,728.00,VWS V14.01,2013-03-21 16:45:00,
2013-03-21 11:50:00,24.4,9.7,30.13,NW,308,2.0,4.0,53,0.00,,---,0.00,733.00,VWS V14.01,2013-03-21 16:50:00,
2013-03-21 11:55:00,23.8,8.8,30.13,NW,315,1.0,5.0,52,0.00,,---,0.00,742.00,VWS V14.01,2013-03-21 16:55:00,
2013-03-21 12:00:00,24.0,9.4,30.13,WSW,252,3.0,5.0,53,0.00,,---,0.00,749.00,VWS V14.01,2013-03-21 17:00:00,
2013-03-21 12:05:00,24.7,9.6,30.13,WSW,252,2.0,3.0,52,0.00,,---,0.00,756.00,VWS V14.01,2013-03-21 17:05:00,
2013-03-21 12:10:00,25.2,9.6,30.13,NW,311,0.0,5.0,51,0.00,,---,0.00,761.00,VWS V14.01,2013-03-21 17:10:00,
2013-03-21 12:15:00,26.3,11.1,30.12,WNW,289,1.0,5.0,52,0.00,,---,0.00,766.00,VWS V14.01,2013-03-21 17:15:00,
2013-03-21 12:20:00,25.7,8.7,30.12,NW,317,2.0,6.0,48,0.00,,---,0.00,773.00,VWS V14.01,2013-03-21 17:20:00,
2013-03-21 12:25:00,24.3,8.8,30.12,WNW,300,1.0,5.0,51,0.00,,---,0.00,773.00,VWS V14.01,2013-03-21 17:25:00,
2013-03-21 12:30:00,24.5,9.8,30.12,NW,311,0.0,4.0,53,0.00,,---,0.00,779.00,VWS V14.01,2013-03-21 17:30:00,
2013-03-21 12:35:00,23.8,8.3,30.12,NNW,331,2.0,7.0,51,0.00,,---,0.00,784.00,VWS V14.01,2013-03-21 17:35:00,
2013-03-21 12:40:00,23.4,7.9,30.12,NNW,333,4.0,4.0,51,0.00,,---,0.00,786.00,VWS V14.01,2013-03-21 17:40:00,
2013-03-21 12:50:00,22.5,8.0,30.12,WSW,244,2.0,5.0,53,0.00,,---,0.00,791.00,VWS V14.01,2013-03-21 17:50:00,
2013-03-21 12:55:00,22.7,8.1,30.12,NNW,336,4.0,6.0,53,0.00,,---,0.00,793.00,VWS V14.01,2013-03-21 17:55:00,
2013-03-21 13:00:00,22.6,8.5,30.12,NNW,344,2.0,5.0,54,0.00,,---,0.00,796.00,VWS V14.01,2013-03-21 18:00:00,
2013-03-21 13:05:00,23.3,10.7,30.12,NW,317,1.0,6.0,58,0.00,,---,0.00,798.00,VWS V14.01,2013-03-21 18:05:00,
2013-03-21 13:10:00,24.4,10.1,30.12,SW,228,2.0,4.0,54,0.00,,---,0.00,798.00,VWS V14.01,2013-03-21 18:10:00,
2013-03-21 13:15:00,24.4,9.3,30.12,North,355,3.0,5.0,52,0.00,,---,0.00,796.00,VWS V14.01,2013-03-21 18:15:00,
2013-03-21 13:20:00,24.3,9.6,30.12,NNW,327,4.0,4.0,53,0.00,,---,0.00,802.00,VWS V14.01,2013-03-21 18:20:00,
2013-03-21 13:25:00,24.6,10.3,30.11,NNW,336,2.0,4.0,54,0.00,,---,0.00,800.00,VWS V14.01,2013-03-21 18:25:00,
2013-03-21 13:30:00,25.8,12.3,30.11,WSW,258,2.0,3.0,56,0.00,,---,0.00,802.00,VWS V14.01,2013-03-21 18:30:00,
2013-03-21 13:35:00,26.2,10.6,30.11,NW,323,3.0,5.0,51,0.00,,---,0.00,800.00,VWS V14.01,2013-03-21 18:35:00,
2013-03-21 13:40:00,26.1,11.3,30.11,NW,306,1.0,8.0,53,0.00,,---,0.00,796.00,VWS V14.01,2013-03-21 18:40:00,
2013-03-21 13:45:00,25.8,10.2,30.11,North,360,2.0,5.0,51,0.00,,---,0.00,795.00,VWS V14.01,2013-03-21 18:45:00,
2013-03-21 13:50:00,25.7,11.4,30.11,West,259,0.0,3.0,54,0.00,,---,0.00,793.00,VWS V14.01,2013-03-21 18:50:00,
2013-03-21 13:55:00,26.5,10.8,30.11,WNW,299,2.0,4.0,51,0.00,,---,0.00,788.00,VWS V14.01,2013-03-21 18:55:00,
2013-03-21 14:00:00,25.2,8.7,30.11,North,10,1.0,6.0,49,0.00,,---,0.00,784.00,VWS V14.01,2013-03-21 19:00:00,
2013-03-21 14:05:00,24.6,9.5,30.11,NNW,345,3.0,4.0,52,0.00,,---,0.00,782.00,VWS V14.01,2013-03-21 19:05:00,
2013-03-21 14:10:00,25.0,10.7,30.10,NW,323,0.0,5.0,54,0.00,,---,0.00,779.00,VWS V14.01,2013-03-21 19:10:00,
2013-03-21 14:15:00,25.8,9.7,30.10,West,277,1.0,7.0,50,0.01,,---,0.01,773.00,VWS V14.01,2013-03-21 19:15:00,
2013-03-21 14:25:00,25.0,10.3,30.10,NNW,344,3.0,3.0,53,0.01,,---,0.01,761.00,VWS V14.01,2013-03-21 19:25:00,
2013-03-21 14:30:00,24.6,9.1,30.10,NNW,341,6.0,9.0,51,0.01,,---,0.01,756.00,VWS V14.01,2013-03-21 19:30:00,
2013-03-21 14:35:00,24.3,8.8,30.10,North,5,0.0,7.0,51,0.01,,---,0.01,752.00,VWS V14.01,2013-03-21 19:35:00,
2013-03-21 14:40:00,24.7,9.6,30.09,NNW,336,1.0,5.0,52,0.01,,---,0.01,744.00,VWS V14.01,2013-03-21 19:40:00,
2013-03-21 14:45:00,25.7,12.2,30.09,NNW,348,3.0,4.0,56,0.01,,---,0.01,735.00,VWS V14.01,2013-03-21 19:45:00,
2013-03-21 14:50:00,26.1,10.0,30.09,NW,323,1.0,5.0,50,0.01,,---,0.01,724.00,VWS V14.01,2013-03-21 19:50:00,
2013-03-21 14:55:00,25.8,9.7,30.09,NW,309,5.0,7.0,50,0.01,,---,0.01,721.00,VWS V14.01,2013-03-21 19:55:00,
2013-03-21 15:00:00,25.2,9.2,30.09,NW,306,0.0,6.0,50,0.01,,---,0.01,712.00,VWS V14.01,2013-03-21 20:00:00,
2013-03-21 15:05:00,25.8,10.6,30.09,North,355,4.0,4.0,52,0.01,,---,0.01,703.00,VWS V14.01,2013-03-21 20:05:00,
2013-03-21 15:10:00,25.8,10.2,30.09,NNW,331,1.0,9.0,51,0.01,,---,0.01,694.00,VWS V14.01,2013-03-21 20:10:00,
2013-03-21 15:15:00,25.7,9.6,30.09,NNW,342,0.0,3.0,50,0.01,,---,0.01,687.00,VWS V14.01,2013-03-21 20:15:00,
2013-03-21 15:20:00,26.2,10.1,30.09,WSW,249,5.0,5.0,50,0.00,,---,0.01,679.00,VWS V14.01,2013-03-21 20:20:00,
2013-03-21 15:25:00,26.7,10.1,30.09,NW,324,4.0,6.0,49,0.00,,---,0.01,666.00,VWS V14.01,2013-03-21 20:25:00,
2013-03-21 15:30:00,26.9,10.3,30.09,NNE,14,1.0,5.0,49,0.00,,---,0.01,657.00,VWS V14.01,2013-03-21 20:30:00,
2013-03-21 15:35:00,27.0,10.9,30.08,NW,317,3.0,6.0,50,0.00,,---,0.01,649.00,VWS V14.01,2013-03-21 20:35:00,
2013-03-21 15:40:00,27.3,10.7,30.08,NNW,342,5.0,5.0,49,0.00,,---,0.01,635.00,VWS V14.01,2013-03-21 20:40:00,
2013-03-21 15:45:00,26.7,9.7,30.08,NNW,331,2.0,6.0,48,0.00,,---,0.01,624.00,VWS V14.01,2013-03-21 20:45:00,
2013-03-21 15:50:00,26.3,10.6,30.09,North,351,5.0,6.0,51,0.00,,---,0.01,610.00,VWS V14.01,2013-03-21 20:50:00,
2013-03-21 15:55:00,25.9,9.4,30.09,North,360,0.0,6.0,49,0.00,,---,0.01,601.00,VWS V14.01,2013-03-21 20:55:00,
2013-03-21 16:00:00,27.3,12.0,30.08,NNW,332,1.0,3.0,52,0.00,,---,0.01,587.00,VWS V14.01,2013-03-21 21:00:00,
2013-03-21 16:05:00,28.9,12.1,30.08,WNW,300,0.0,4.0,49,0.00,,---,0.01,577.00,VWS V14.01,2013-03-21 21:05:00,
2013-03-21 16:10:00,28.4,10.8,30.08,NNW,328,4.0,7.0,47,0.00,,---,0.01,568.00,VWS V14.01,2013-03-21 21:10:00,
2013-03-21 16:15:00,27.8,10.7,30.08,NNW,336,3.0,9.0,48,0.00,,---,0.01,550.00,VWS V14.01,2013-03-21 21:15:00,
2013-03-21 16:20:00,28.0,11.8,30.08,NNW,327,3.0,4.0,50,0.00,,---,0.01,536.00,VWS V14.01,2013-03-21 21:20:00,
2013-03-21 16:25:00,28.9,11.7,30.08,West,260,0.0,3.0,48,0.00,,---,0.01,524.00,VWS V14.01,2013-03-21 21:25:00,
2013-03-21 16:30:00,29.0,11.3,30.08,SW,226,0.0,2.0,47,0.00,,---,0.01,510.00,VWS V14.01,2013-03-21 21:30:00,
2013-03-21 16:40:00,27.7,10.1,30.08,NW,323,2.0,6.0,47,0.00,,---,0.01,482.00,VWS V14.01,2013-03-21 21:40:00,
2013-03-21 16:45:00,27.1,10.0,30.08,NW,326,1.0,4.0,48,0.00,,---,0.01,466.00,VWS V14.01,2013-03-21 21:45:00,
2013-03-21 16:50:00,27.5,10.9,30.08,NW,326,0.0,2.0,49,0.00,,---,0.01,450.00,VWS V14.01,2013-03-21 21:50:00,
2013-03-21 16:55:00,28.1,11.4,30.08,North,355,2.0,5.0,49,0.00,,---,0.01,436.00,VWS V14.01,2013-03-21 21:55:00,
2013-03-21 17:00:00,27.8,10.7,30.08,North,355,1.0,5.0,48,0.00,,---,0.01,420.00,VWS V14.01,2013-03-21 22:00:00,
2013-03-21 17:05:00,27.9,10.8,30.08,NNW,347,2.0,4.0,48,0.00,,---,0.01,404.00,VWS V14.01,2013-03-21 22:05:00,
2013-03-21 17:10:00,28.1,11.9,30.08,NW,317,2.0,3.0,50,0.00,,---,0.01,390.00,VWS V14.01,2013-03-21 22:10:00,
2013-03-21 17:15:00,28.8,12.1,30.08,WSW,245,3.0,6.0,49,0.00,,---,0.01,376.00,VWS V14.01,2013-03-21 22:15:00,
2013-03-21 17:20:00,27.9,11.2,30.08,SSW,211,1.0,8.0,49,0.00,,---,0.01,360.00,VWS V14.01,2013-03-21 22:20:00,
2013-03-21 17:25:00,28.0,11.8,30.08,WSW,239,6.0,6.0,50,0.00,,---,0.01,345.00,VWS V14.01,2013-03-21 22:25:00,
2013-03-21 17:30:00,28.5,12.7,30.08,West,279,4.0,6.0,51,0.00,,---,0.01,327.00,VWS V14.01,2013-03-21 22:30:00,
2013-03-21 17:35:00,29.0,12.2,30.08,WSW,251,0.0,4.0,49,0.00,,---,0.01,311.00,VWS V14.01,2013-03-21 22:35:00,
2013-03-21 17:40:00,29.3,12.5,30.08,West,267,1.0,3.0,49,0.00,,---,0.01,295.00,VWS V14.01,2013-03-21 22:40:00,
2013-03-21 17:45:00,29.6,12.3,30.07,West,265,2.0,3.0,48,0.00,,---,0.01,283.00,VWS V14.01,2013-03-21 22:45:00,
2013-03-21 17:50:00,29.2,11.5,30.07,WSW,245,1.0,7.0,47,0.00,,---,0.01,267.00,VWS V14.01,2013-03-21 22:50:00,
2013-03-21 17:55:00,28.9,12.1,30.08,WSW,246,5.0,5.0,49,0.00,,---,0.01,251.00,VWS V14.01,2013-03-21 22:55:00,
2013-03-21 18:00:00,28.9,12.1,30.08,WSW,246,2.0,5.0,49,0.00,,---,0.01,234.00,VWS V14.01,2013-03-21 23:00:00,
2013-03-21 18:05:00,29.3,12.5,30.08,West,259,1.0,4.0,49,0.00,,---,0.01,218.00,VWS V14.01,2013-03-21 23:05:00,
2013-03-21 18:10:00,29.6,12.8,30.08,WNW,298,5.0,5.0,49,0.00,,---,0.01,202.00,VWS V14.01,2013-03-21 23:10:00,
2013-03-21 18:15:00,29.6,12.3,30.08,NW,321,2.0,5.0,48,0.00,,---,0.01,188.00,VWS V14.01,2013-03-21 23:15:00,
2013-03-21 18:20:00,28.4,11.2,30.08,NNW,338,1.0,6.0,48,0.00,,---,0.01,174.00,VWS V14.01,2013-03-21 23:20:00,
2013-03-21 18:25:00,28.3,12.1,30.08,WSW,250,0.0,3.0,50,0.00,,---,0.01,160.00,VWS V14.01,2013-03-21 23:25:00,
2013-03-21 18:30:00,28.3,12.1,30.08,WSW,241,0.0,3.0,50,0.00,,---,0.01,144.00,VWS V14.01,2013-03-21 23:30:00,
2013-03-21 18:35:00,28.1,11.4,30.08,WNW,303,2.0,4.0,49,0.00,,---,0.01,128.00,VWS V14.01,2013-03-21 23:35:00,
2013-03-21 18:40:00,27.6,10.9,30.08,WNW,303,4.0,4.0,49,0.00,,---,0.01,109.00,VWS V14.01,2013-03-21 23:40:00,
2013-03-21 18:45:00,27.1,10.9,30.08,NNW,329,2.0,4.0,50,0.00,,---,0.01,91.00,VWS V14.01,2013-03-21 23:45:00,
2013-03-21 18:50:00,27.0,11.7,30.08,NNW,329,0.0,2.0,52,0.00,,---,0.01,76.00,VWS V14.01,2013-03-21 23:50:00,
2013-03-21 18:55:00,27.1,11.8,30.08,NNW,328,0.0,2.0,52,0.00,,---,0.01,63.00,VWS V14.01,2013-03-21 23:55:00,
2013-03-21 19:00:00,27.0,11.7,30.08,NNW,328,0.0,3.0,52,0.00,,---,0.01,49.00,VWS V14.01,2013-03-22 00:00:00,
2013-03-21 19:10:00,26.5,11.3,30.08,NW,315,2.0,3.0,52,0.00,,---,0.01,28.00,VWS V14.01,2013-03-22 00:10:00,
2013-03-21 19:15:00,25.9,10.7,30.09,NW,315,3.0,3.0,52,0.00,,---,0.01,19.00,VWS V14.01,2013-03-22 00:15:00,
2013-03-21 19:20:00,25.3,10.6,30.09,NW,315,0.0,4.0,53,0.00,,---,0.01,12.00,VWS V14.01,2013-03-22 00:20:00,
2013-03-21 19:25:00,24.9,10.6,30.08,NW,315,0.0,2.0,54,0.00,,---,0.01,7.00,VWS V14.01,2013-03-22 00:25:00,
2013-03-21 19:30:00,24.6,10.8,30.09,NW,315,0.0,0.0,55,0.00,,---,0.01,0.00,VWS V14.01,2013-03-22 00:30:00,
2013-03-21 19:35:00,24.2,10.4,30.09,NW,315,0.0,0.0,55,0.00,,---,0.01,0.00,VWS V14.01,2013-03-22 00:35:00,
2013-03-21 19:40:00,23.8,10.4,30.09,NW,315,1.0,2.0,56,0.00,,---,0.01,0.00,VWS V14.01,2013-03-22 00:40:00,
2013-03-21 19:45:00,23.5,10.1,30.09,NW,315,0.0,2.0,56,0.00,,---,0.01,0.00,VWS V14.01,2013-03-22 00:45:00,
2013-03-21 19:50:00,23.2,9.8,30.09,NW,315,0.0,2.0,56,0.00,,---,0.01,0.00,VWS V14.01,2013-03-22 00:50:00,
2013-03-21 20:00:00,22.6,10.1,30.08,West,275,0.0,3.0,58,0.00,,---,0.01,0.00,VWS V14.01,2013-03-22 01:00:00,
2013-03-21 20:05:00,22.3,9.8,30.08,West,275,0.0,1.0,58,0.00,,---,0.01,0.00,VWS V14.01,2013-03-22 01:05:00,
2013-03-21 20:10:00,22.0,9.9,30.09,West,275,0.0,2.0,59,0.00,,---,0.01,0.00,VWS V14.01,2013-03-22 01:10:00,
2013-03-21 20:15:00,21.7,9.6,30.09,West,275,0.0,0.0,59,0.00,,---,0.01,0.00,VWS V14.01,2013-03-22 01:15:00,
2013-03-21 20:20:00,21.4,9.7,30.09,West,275,0.0,1.0,60,0.00,,---,0.01,0.00,VWS V14.01,2013-03-22 01:20:00,
2013-03-21 20:25:00,21.1,9.8,30.09,West,275,0.0,1.0,61,0.00,,---,0.01,0.00,VWS V14.01,2013-03-22 01:25:00,
2013-03-21 20:35:00,20.7,9.8,30.09,West,275,0.0,1.0,62,0.00,,---,0.01,0.00,VWS V14.01,2013-03-22 01:35:00,
2013-03-21 20:40:00,20.5,9.6,30.09,West,275,0.0,0.0,62,0.00,,---,0.01,0.00,VWS V14.01,2013-03-22 01:40:00,
2013-03-21 20:50:00,20.0,9.1,30.09,West,275,0.0,0.0,62,0.00,,---,0.01,0.00,VWS V14.01,2013-03-22 01:50:00,
2013-03-21 20:55:00,19.7,8.8,30.09,West,275,0.0,0.0,62,0.00,,---,0.01,0.00,VWS V14.01,2013-03-22 01:55:00,
2013-03-21 21:00:00,19.7,9.2,30.09,West,275,0.0,0.0,63,0.00,,---,0.01,0.00,VWS V14.01,2013-03-22 02:00:00,
2013-03-21 21:05:00,19.4,9.2,30.09,West,275,0.0,0.0,64,0.00,,---,0.01,0.00,VWS V14.01,2013-03-22 02:05:00,
2013-03-21 21:10:00,19.2,9.0,30.09,West,275,0.0,0.0,64,0.00,,---,0.01,0.00,VWS V14.01,2013-03-22 02:10:00,
2013-03-21 21:15:00,19.0,8.8,30.09,West,275,0.0,0.0,64,0.00,,---,0.01,0.00,VWS V14.01,2013-03-22 02:15:00,
2013-03-21 21:20:00,18.8,8.6,30.09,West,275,0.0,0.0,64,0.00,,---,0.01,0.00,VWS V14.01,2013-03-22 02:20:00,
2013-03-21 21:25:00,18.5,8.7,30.09,West,275,0.0,0.0,65,0.00,,---,0.01,0.00,VWS V14.01,2013-03-22 02:25:00,
2013-03-21 21:30:00,18.4,9.0,30.09,West,275,0.0,0.0,66,0.00,,---,0.01,0.00,VWS V14.01,2013-03-22 02:30:00,
2013-03-21 21:35:00,18.3,8.9,30.09,West,275,0.0,0.0,66,0.00,,---,0.01,0.00,VWS V14.01,2013-03-22 02:35:00,
2013-03-21 21:40:00,18.2,8.8,30.09,West,275,2.0,2.0,66,0.00,,---,0.01,0.00,VWS V14.01,2013-03-22 02:40:00,
2013-03-21 21:45:00,18.2,9.1,30.10,West,275,1.0,2.0,67,0.00,,---,0.01,0.00,VWS V14.01,2013-03-22 02:45:00,
2013-03-21 21:50:00,18.1,9.0,30.10,West,275,0.0,1.0,67,0.00,,---,0.01,0.00,VWS V14.01,2013-03-22 02:50:00,
2013-03-21 21:55:00,17.9,8.8,30.10,West,275,0.0,0.0,67,0.00,,---,0.01,0.00,VWS V14.01,2013-03-22 02:55:00,
2013-03-21 22:00:00,17.7,8.6,30.10,West,275,0.0,0.0,67,0.00,,---,0.01,0.00,VWS V14.01,2013-03-22 03:00:00,
2013-03-21 22:05:00,17.5,8.4,30.10,West,275,0.0,0.0,67,0.00,,---,0.01,0.00,VWS V14.01,2013-03-22 03:05:00,
2013-03-21 22:10:00,17.2,8.1,30.10,West,275,0.0,0.0,67,0.00,,---,0.01,0.00,VWS V14.01,2013-03-22 03:10:00,
2013-03-21 22:15:00,16.9,8.2,30.10,West,275,0.0,0.0,68,0.00,,---,0.01,0.00,VWS V14.01,2013-03-22 03:15:00,
2013-03-21 22:20:00,16.7,8.0,30.10,West,275,0.0,0.0,68,0.00,,---,0.01,0.00,VWS V14.01,2013-03-22 03:20:00,
2013-03-21 22:25:00,16.4,7.7,30.10,West,275,0.0,0.0,68,0.00,,---,0.01,0.00,VWS V14.01,2013-03-22 03:25:00,
2013-03-21 22:30:00,16.1,7.4,30.10,West,275,0.0,0.0,68,0.00,,---,0.01,0.00,VWS V14.01,2013-03-22 03:30:00,
2013-03-21 22:35:00,15.8,7.4,30.10,West,275,0.0,0.0,69,0.00,,---,0.01,0.00,VWS V14.01,2013-03-22 03:35:00,
2013-03-21 22:40:00,15.6,7.3,30.11,West,275,0.0,0.0,69,0.00,,---,0.01,0.00,VWS V14.01,2013-03-22 03:40:00,
2013-03-21 22:45:00,15.5,7.5,30.11,West,275,0.0,0.0,70,0.00,,---,0.01,0.00,VWS V14.01,2013-03-22 03:45:00,
2013-03-21 22:50:00,15.5,7.8,30.11,West,275,0.0,0.0,71,0.00,,---,0.01,0.00,VWS V14.01,2013-03-22 03:50:00,
2013-03-21 22:55:00,15.4,7.7,30.11,West,275,0.0,0.0,71,0.00,,---,0.01,0.00,VWS V14.01,2013-03-22 03:55:00,
2013-03-21 23:05:00,15.2,7.8,30.10,West,275,0.0,0.0,72,0.00,,---,0.01,0.00,VWS V14.01,2013-03-22 04:05:00,
2013-03-21 23:10:00,15.1,7.7,30.10,West,275,0.0,0.0,72,0.00,,---,0.01,0.00,VWS V14.01,2013-03-22 04:10:00,
2013-03-21 23:15:00,14.9,7.5,30.10,West,275,0.0,0.0,72,0.00,,---,0.01,0.00,VWS V14.01,2013-03-22 04:15:00,
2013-03-21 23:20:00,14.6,7.5,30.11,West,275,0.0,0.0,73,0.00,,---,0.01,0.00,VWS V14.01,2013-03-22 04:20:00,
2013-03-21 23:25:00,14.5,7.7,30.11,West,275,0.0,0.0,74,0.00,,---,0.01,0.00,VWS V14.01,2013-03-22 04:25:00,
2013-03-21 23:30:00,14.7,7.9,30.11,West,275,0.0,0.0,74,0.00,,---,0.01,0.00,VWS V14.01,2013-03-22 04:30:00,
2013-03-21 23:35:00,14.7,7.9,30.11,West,275,0.0,0.0,74,0.00,,---,0.01,0.00,VWS V14.01,2013-03-22 04:35:00,
2013-03-21 23:40:00,14.7,7.9,30.11,West,275,0.0,0.0,74,0.00,,---,0.01,0.00,VWS V14.01,2013-03-22 04:40:00,
2013-03-21 23:45:00,14.6,7.8,30.11,West,275,0.0,0.0,74,0.00,,---,0.01,0.00,VWS V14.01,2013-03-22 04:45:00,
2013-03-21 23:50:00,14.4,7.6,30.11,West,275,0.0,0.0,74,0.00,,---,0.01,0.00,VWS V14.01,2013-03-22 04:50:00,
2013-03-21 23:55:00,14.3,7.6,30.10,West,275,0.0,0.0,74,0.00,,---,0.01,0.00,VWS V14.01,2013-03-22 04:55:00,